User: anonymous   Login
Location: Sceptre
(50.8619°N, 109.2670°W)
Time: 10:59:31
(UTC+00:00)
Language:

Prospero - Orbit

View from above orbital plane
View from above orbital plane
View from above satellite
View from above satellite

Ground track
Ground track

The orbit data is extracted from the following two-line orbital elements,

1 05580U 71093A   22333.79194993  .00001397  00000-0  31406-3 0  9999
2 05580  82.0402 342.2350 0524614 324.4244  32.2966 13.95445682567452
Epoch (UTC): 29 November 2022 19:00:24
Eccentricity: 0.0524614
inclination: 82.0402°
perigee height: 527 km
apogee height: 1292 km
right ascension of ascending node: 342.2350°
argument of perigee: 324.4244°
revolutions per day: 13.95445682
mean anomaly at epoch: 32.2966°
orbit number at epoch: 56745

The dashed part of the orbit path shows where the satellite is in the earth's shadow,  

DLR